This demonstration page uses our WeatherBlox Daily Observations layout. Learn more.

Hourly Observations for December 20, 2018

Temp ( °F °C ) Dew Point ( °F °C ) Humidity (%) Winds ( mph kmh ) Pressure ( in mb ) Visibility ( mi km ) Precip ( " mm )
12:15 am 00:15 Clear 36 2.3 29 -1.5 76 76 NW 15 24 30 1016 10 16.0934 0 0
12:35 am 00:35 Clear 36 2.2 29 -1.5 77 77 NW 13 20 30 1016 10 16.0934 0 0
12:55 am 00:55 Clear 36 2 29 -1.5 78 78 NW 14 22 30.03 1017 10 16.0934 0 0
1:15 am 01:15 Clear 36 2 29 -1.5 78 78 NW 13 20 30.03 1017 10 16.0934 0 0
1:35 am 01:35 Clear 36 2.2 29 -1.5 77 77 NW 14 22 30.06 1018 10 16.0934 0 0
1:55 am 01:55 Clear 36 2.2 29 -1.5 77 77 WNW 14 22 30.06 1018 10 16.0934 0 0
2:15 am 02:15 Clear 35 1.8 29 -1.6 78 78 WNW 14 22 30.06 1018 10 16.0934 0 0
2:35 am 02:35 Clear 35 1.5 29 -1.6 80 80 NW 12 19 30.06 1018 10 16.0934 0 0
2:55 am 02:55 Clear 35 1.5 29 -1.6 80 80 NW 13 20 30.06 1018 10 16.0934 0 0
3:15 am 03:15 Clear 35 1.7 29 -1.6 79 79 NW 14 22 30.06 1018 10 16.0934 0 0
3:35 am 03:35 Clear 36 2.2 29 -1.7 76 76 NW 15 24 30.06 1018 10 16.0934 0 0
3:55 am 03:55 Clear 35 1.7 29 -1.8 78 78 NW 13 20 30.06 1018 10 16.0934 0 0
4:15 am 04:15 Clear 34 1.1 29 -1.9 81 81 NW 14 22 30.06 1018 10 16.0934 0 0
4:35 am 04:35 Clear 34 1.3 28 -2 79 79 NW 15 24 30.06 1018 10 16.0934 0 0
4:55 am 04:55 Clear 34 1.2 28 -2 79 79 NW 16 26 30.06 1018 10 16.0934 0 0
5:15 am 05:15 Clear 34 1.1 28 -2 80 80 NW 16 26 30.06 1018 10 16.0934 0 0
5:35 am 05:35 Clear 34 1.1 28 -2 80 80 NW 17 28 30.06 1018 10 16.0934 0 0
5:55 am 05:55 Clear 34 1.2 28 -2 79 79 NW 17 28 30.09 1019 10 16.0934 0 0
6:15 am 06:15 Clear 33 0.8 28 -2.1 81 81 NW 16 26 30.09 1019 10 16.0934 0 0
6:35 am 06:35 Clear 33 0.8 28 -2.1 81 81 NW 15 24 30.09 1019 10 16.0934 0 0
6:55 am 06:55 Clear 33 0.8 28 -2.2 81 81 NW 16 26 30.12 1020 10 16.0934 0 0
7:15 am 07:15 Clear 34 1 28 -2.3 79 79 NW 20 31 30.12 1020 10 16.0934 0 0
7:35 am 07:35 Clear 34 1.1 28 -2.3 78 78 NW 16 26 30.12 1020 10 16.0934 0 0
7:55 am 07:55 Clear 34 1 28 -2.3 79 79 NW 17 28 30.12 1020 10 16.0934 0 0
8:15 am 08:15 Sunny 34 1.1 28 -2.3 78 78 NW 16 26 30.12 1020 10 16.0934 0 0
8:35 am 08:35 Sunny 34 1.3 28 -2.2 78 78 NW 15 24 30.15 1021 10 16.0934 0 0
8:55 am 08:55 Sunny 36 2 28 -2.1 75 75 NW 16 26 30.15 1021 10 16.0934 0 0
9:15 am 09:15 Sunny 37 2.5 28 -2 73 73 NW 17 28 30.15 1021 10 16.0934 0 0
9:35 am 09:35 Sunny 37 3 28 -2 70 70 NW 16 26 30.15 1021 10 16.0934 0 0
9:55 am 09:55 Sunny 38 3.5 29 -1.6 70 70 NW 16 26 30.18 1022 10 16.0934 0 0
10:15 am 10:15 Sunny 39 4.1 29 -1.7 66 66 NNW 17 28 30.15 1021 10 16.0934 0 0
10:35 am 10:35 Sunny 40 4.7 30 -1.3 65 65 NNW 21 33 30.15 1021 10 16.0934 0 0
10:55 am 10:55 Sunny 41 5.1 29 -1.4 63 63 NNW 16 26 30.15 1021 10 16.0934 0 0
11:15 am 11:15 Sunny 42 5.7 30 -1 62 62 NNW 21 33 30.15 1021 10 16.0934 0 0
11:35 am 11:35 Sunny 43 6.1 31 -0.8 62 62 NNW 17 28 30.15 1021 10 16.0934 0 0
11:55 am 11:55 Sunny 44 6.6 31 -0.6 60 60 NNW 21 33 30.15 1021 10 16.0934 0 0
12:15 pm 12:15 Sunny 45 7 31 -0.8 58 58 NNW 22 35 30.09 1019 10 16.0934 0 0
12:35 pm 12:35 Sunny 45 7.2 30 -0.9 57 57 NNW 21 33 30.09 1019 10 16.0934 0 0
12:55 pm 12:55 Sunny 46 7.5 31 -0.8 56 56 NNW 18 30 30.09 1019 10 16.0934 0 0
1:15 pm 13:15 Sunny 46 7.7 30 -1 54 54 NNW 18 30 30.09 1019 10 16.0934 0 0
1:35 pm 13:35 Sunny 46 8 31 -0.8 54 54 NNW 17 28 30.09 1019 10 16.0934 0 0
1:55 pm 13:55 Sunny 46 8 30 -1.2 53 53 NNW 17 28 30.09 1019 10 16.0934 0 0
2:15 pm 14:15 Sunny 46 8 29 -1.4 52 52 NNW 22 35 30.09 1019 10 16.0934 0 0
2:35 pm 14:35 Sunny 47 8.1 29 -1.5 51 51 NNW 21 33 30.09 1019 10 16.0934 0 0
2:55 pm 14:55 Sunny 47 8.2 29 -1.8 50 50 N 17 28 30.09 1019 10 16.0934 0 0
3:15 pm 15:15 Sunny 47 8.1 29 -1.5 51 51 NNW 15 24 30.09 1019 10 16.0934 0 0
3:35 pm 15:35 Sunny 46 8 29 -1.7 51 51 NNW 20 31 30.09 1019 10 16.0934 0 0
3:55 pm 15:55 Sunny 46 7.7 29 -1.4 53 53 NNW 15 24 30.09 1019 10 16.0934 0 0
4:15 pm 16:15 Sunny 45 7.2 30 -1.2 56 56 NNW 10 17 30.09 1019 10 16.0934 0 0
4:35 pm 16:35 Sunny 44 6.6 30 -1.2 58 58 NNW 10 17 30.09 1019 10 16.0934 0 0
4:55 pm 16:55 Sunny 42 5.7 29 -1.4 61 61 NNW 9 15 30.12 1020 10 16.0934 0 0
5:15 pm 17:15 Clear 40 4.2 29 -1.6 66 66 NNW 6 9 30.12 1020 10 16.0934 0 0
5:35 pm 17:35 Clear 37 2.5 28 -2 73 73 NW 6 9 30.15 1021 10 16.0934 0 0
5:55 pm 17:55 Clear 35 1.5 28 -2.1 77 77 NW 7 11 30.15 1021 10 16.0934 0 0
6:15 pm 18:15 Clear 34 1 28 -2.2 79 79 NW 8 13 30.15 1021 10 16.0934 0 0
6:35 pm 18:35 Clear 33 0.3 28 -2.5 82 82 W 6 9 30.15 1021 10 16.0934 0 0
6:55 pm 18:55 Clear 34 1.1 28 -2.3 78 78 WNW 6 9 30.15 1021 10 16.0934 0 0
7:15 pm 19:15 Clear 32 0 27 -2.7 82 82 WNW 6 9 30.18 1022 10 16.0934 0 0
7:35 pm 19:35 Clear 32 -0.1 27 -2.9 82 82 WNW 7 11 30.18 1022 10 16.0934 0 0
7:55 pm 19:55 Clear 32 0 27 -2.8 82 82 W 9 15 30.12 1020 10 16.0934 0 0
8:15 pm 20:15 Clear 33 0.3 27 -2.7 81 81 WNW 8 13 30.12 1020 10 16.0934 0 0
8:35 pm 20:35 Clear 33 0.5 27 -2.7 79 79 WNW 8 13 30.12 1020 10 16.0934 0 0
8:55 pm 20:55 Clear 33 0.3 27 -3 79 79 WNW 8 13 30.12 1020 10 16.0934 0 0
9:15 pm 21:15 Clear 32 0 27 -3 80 80 WNW 8 13 30.12 1020 10 16.0934 0 0
9:35 pm 21:35 Clear 31 -0.4 26 -3.2 82 82 WNW 6 9 30.15 1021 10 16.0934 0 0
9:55 pm 21:55 Clear 30 -1 26 -3.5 83 83 WNW 6 9 30.15 1021 10 16.0934 0 0
10:15 pm 22:15 Clear 31 -0.7 26 -3.5 82 82 WNW 7 11 30.12 1020 10 16.0934 0 0
10:35 pm 22:35 Clear 30 -1.1 25 -3.9 82 82 WNW 7 11 30.12 1020 10 16.0934 0 0
10:55 pm 22:55 Clear 30 -1.1 25 -4 81 81 NW 7 11 30.12 1020 10 16.0934 0 0
11:15 pm 23:15 Clear 31 -0.8 25 -4 79 79 WNW 7 11 30.12 1020 10 16.0934 0 0
11:35 pm 23:35 Clear 29 -1.5 25 -4.1 83 83 WNW 6 9 30.12 1020 10 16.0934 0 0
11:55 pm 23:55 Clear 29 -1.5 24 -4.3 81 81 W 7 11 30.12 1020 10 16.0934 0 0

Powered by AerisWeather